#timestamp,LO_Frequency,Hit,StdDev 
1456221615.4,286047002.6,N
1456221635.3,286047003.6,N
1456221655.1,286047005.9,N
1456221675.8,286047008.7,N
1456221695.7,286047009.6,N
1456221715.5,286047013.7,Y
1456221735.3,286047012.9,P
1456221755.2,286047011.3,N
1456221775.9,286047011.3,N
1456221795.7,286047014.8,N
1456221815.6,286047017.2,Y
1456221835.4,286047000.1,P
1456221855.2,286047001.0,N
1456221875.1,286046999.4,N
1456221876.0,286046999.4,N
1456221895.8,286046999.1,N
1456221915.6,286046996.6,N
1456221935.5,286046994.6,N
1456221955.3,286046993.9,N
1456221975.1,286046990.5,N
1456221995.9,286046991.4,N
1456222015.7,286046987.5,N
1456222035.5,286046986.8,N
1456222055.3,286046985.6,N
1456222075.2,286046987.4,N
1456222095.0,286046986.3,N
1456222095.9,286046986.3,N
1456222115.7,286046983.8,N
1456222135.6,286046988.3,N
1456222155.4,286046989.2,N
1456222175.2,286046986.9,N
1456222195.1,286046989.2,N
1456222196.0,286046989.2,N
1456222215.8,286046988.9,N
1456222235.6,286046989.7,N
1456222255.5,286046985.8,N
1456222275.3,286046988.7,N
1456222295.1,286046988.9,N
1456222315.9,286046987.5,N
1456222335.7,286046986.0,N
1456222355.5,286046984.8,N
1456222375.4,286046983.1,Y
1456222395.2,286046992.4,P
1456222415.0,286046995.7,P
1456222415.9,286046995.7,N
1456222435.8,286046998.7,N
1456222455.6,286047003.2,N
1456222475.4,286047006.8,N
1456222495.2,286047007.7,N
1456222515.1,286047011.8,N
1456222516.0,286047011.8,N
1456222535.8,286047011.0,N
1456222555.6,286047013.1,N
1456222575.5,286047010.0,N
1456222595.3,286047004.1,N
1456222615.1,286047005.5,N
1456222635.9,286047002.7,N
1456222655.7,286046999.0,N
1456222675.5,286047003.5,N
1456222695.4,286047009.1,N
1456222715.2,286047008.7,N
1456222735.0,286047006.0,N
1456222735.9,286047006.0,N
1456222755.8,286047004.4,N
1456222775.6,286047003.8,N
1456222795.4,286047003.9,N
1456222815.2,286047000.3,N
1456222835.1,286046996.5,N
1456222836.0,286046996.5,N
1456222855.8,286046999.7,N
1456222875.6,286047005.3,N
1456222895.5,286047005.1,N
1456222915.3,286047000.0,N
1456222935.1,286047002.6,N
1456222955.9,286047004.0,N
1456222975.7,286047004.2,N
1456222995.5,286047007.6,N
1456223015.4,286047005.8,N
1456223035.2,286047003.1,N
1456223055.0,286047005.2,N
1456223055.9,286047005.2,N
1456223075.8,286047006.0,N
1456223095.6,286047006.7,N
1456223115.4,286047013.7,Y
1456223135.3,286047018.6,P
1456223155.1,286047020.9,N
1456223156.0,286047020.9,N
1456223175.8,286047024.9,Y
1456223195.7,286047009.4,P
1456223215.5,286047013.9,P
1456223235.3,286047015.6,P
1456223255.2,286047014.3,Y
1456223275.9,286047000.7,P
1456223295.7,286046995.8,N
1456223315.6,286046997.8,N
1456223335.4,286046998.8,N
1456223355.2,286047001.4,N
1456223375.1,286047005.2,N
1456223376.0,286047005.2,N
1456223395.8,286047005.9,N
1456223415.6,286047003.2,N
1456223435.5,286047003.7,N
1456223455.3,286047001.7,N
1456223475.1,286047003.5,N
1456223495.8,286047005.9,N
1456223515.7,286047003.7,N
1456223535.5,286047006.6,N
1456223555.3,286047002.3,N
1456223575.2,286046999.0,N
1456223595.9,286046996.4,N
1456223615.7,286046993.1,N
1456223635.6,286046985.6,Y
1456223655.4,286046982.4,P
1456223675.2,286046976.5,N
1456223695.1,286046976.5,N
1456223696.0,286046976.5,N
1456223715.8,286046977.0,N
1456223735.6,286046976.4,N
1456223755.5,286046975.0,N
1456223775.3,286046974.3,Y
1456223795.1,286046990.5,P
1456223815.9,286046987.0,N
1456223835.7,286046985.8,P
1456223855.5,286046982.5,Y
1456223875.4,286046996.6,P
1456223895.2,286046995.4,N
1456223915.0,286046994.9,N
1456223915.9,286046994.9,N
1456223935.8,286046995.5,N
1456223955.6,286046995.9,N
1456223975.4,286046995.4,N
1456223995.2,286046999.1,N
1456224015.1,286046998.3,N
1456224016.0,286046998.3,N
1456224035.8,286046996.6,N
1456224055.6,286046997.2,N
1456224075.5,286047000.5,N
1456224095.3,286047001.1,N
1456224115.1,286047000.9,N
1456224135.9,286046998.4,N
1456224155.7,286047002.2,N
1456224175.5,286047007.0,N
1456224195.4,286047003.5,N
1456224215.2,286047000.9,N
1456224235.0,286047004.5,N
1456224235.9,286047004.5,N
1456224255.8,286047006.2,N
1456224275.6,286047011.1,N
1456224295.4,286047012.1,N
1456224315.3,286047011.9,N
1456224335.1,286047011.0,N
1456224336.0,286047011.0,N
1456224355.8,286047009.7,N
1456224375.6,286047012.2,N
1456224395.5,286047010.1,N
1456224415.3,286047016.9,N
1456224435.1,286047015.9,N
1456224455.9,286047013.2,N
1456224475.7,286047013.3,N
1456224495.5,286047017.4,N
1456224515.4,286047015.7,N
1456224535.2,286047018.8,N
1456224555.0,286047017.5,N
1456224555.9,286047017.5,N
1456224575.8,286047018.5,N
1456224595.6,286047021.5,Y
1456224615.4,286047020.6,P
1456224635.3,286047023.4,P
1456224655.1,286047018.9,P
1456224675.8,286047016.0,Y
1456224695.7,286046994.8,P
1456224715.5,286046990.5,N
1456224735.3,286046989.8,N
1456224755.2,286046992.9,N
1456224775.9,286046995.3,N
1456224795.7,286046993.9,N
1456224815.6,286046996.1,N
1456224835.4,286046995.4,N
1456224855.2,286046993.1,N
1456224875.1,286046991.4,N
1456224876.0,286046991.4,N
1456224895.8,286046991.5,N
1456224915.6,286046987.5,N
1456224935.4,286046986.8,N
1456224955.3,286046984.9,N
1456224975.1,286046988.1,N
1456224995.8,286046990.1,N
1456225015.7,286046992.7,N
1456225035.5,286046991.5,N
1456225055.3,286046988.7,N
1456225075.2,286046990.1,N
1456225095.9,286046993.3,N
1456225115.7,286046992.3,N
1456225135.6,286046991.2,N
1456225155.4,286046993.2,N
1456225175.2,286046992.3,N
1456225195.1,286046988.6,N
1456225196.0,286046988.6,N
